Location: Breitenfeld
(46.8500°N, 15.6333°E)
Time: 17:42:13
(UTC+00:00)

Cosmos 2058 - Pass Details

Date: 09 April 2020
Orbit: 563 x 583 km, 82.5° (Epoch: 24 May)

Event Time Altitude Azimuth Distance (km) Brightness Sun altitude
Rises 19:14:03 0° 356° (N) 2,774 6.9 -16.0°
Reaches altitude 10° 19:16:20 10° 3° (N) 1,875 5.9 -16.3°
Maximum altitude 19:20:17 44° 76° (ENE) 799 3.3 -16.9°
Enters shadow 19:21:20 36° 116° (ESE) 918 3.4 -17.1°
